Location: Newark
(48.3453°N, 0.5589°E)
Time: 15:47:07
(UTC+00:00)

A-11 Canister half - Pass Details

Date: 14 December 2019
Orbit: 1517 x 1683 km, 47.2° (Epoch: 26 January)

Event Time Altitude Azimuth Distance (km) Brightness Sun altitude
Rises 10:32:41 0° 218° (SW) 4,702 12.0 16.3°
Reaches altitude 10° 10:35:51 10° 212° (SSW) 3,740 11.7 16.4°
Maximum altitude 10:44:41 45° 144° (SE) 2,061 10.9 16.9°
Drops below altitude 10° 10:53:51 10° 76° (ENE) 3,876 11.2 17.3°
Sets 10:57:11 0° 70° (ENE) 4,886 11.6 17.4°
